#timestamp,LO_Frequency,Hit,StdDev 
1657058415.4,286047000.0,N
1657058435.2,286047001.1,N
1657058455.0,286046998.2,N
1657058455.9,286046998.2,N
1657058475.8,286046998.3,N
1657058495.6,286046998.8,N
1657058515.5,286046999.1,N
1657058535.3,286046999.0,N
1657058555.1,286046998.5,N
1657058575.9,286047000.7,N
1657058595.7,286047002.8,N
1657058615.5,286047000.3,N
1657058635.4,286047000.5,N
1657058655.2,286047001.0,N
1657058675.1,286047000.7,N
1657058676.0,286047000.7,N
1657058695.8,286047000.0,N
1657058715.6,286047000.4,N
1657058735.5,286047000.8,N
1657058755.3,286046998.1,N
1657058775.1,286046998.2,N
1657058795.9,286046998.5,N
1657058815.7,286046998.1,N
1657058835.6,286047001.0,N
1657058855.4,286047000.7,N
1657058875.2,286047000.8,N
1657058895.1,286047000.8,N
1657058896.0,286047000.8,N
1657058915.8,286046998.2,N
1657058935.6,286047000.7,N
1657058955.5,286047000.9,N
1657058975.3,286047000.6,N
1657058995.2,286047000.4,N
1657059015.9,286047000.2,N
1657059035.7,286047002.1,N
1657059055.6,286047001.8,N
1657059075.4,286047001.6,N
1657059095.2,286047002.1,N
1657059115.1,286047001.7,N
1657059116.0,286047001.7,N
1657059135.8,286047001.4,N
1657059155.7,286047001.7,N
1657059175.5,286047001.5,N
1657059195.3,286047002.4,N
1657059215.2,286047000.0,N
1657059235.0,286047000.1,N
1657059235.9,286047000.1,N
1657059255.8,286047002.4,N
1657059275.6,286047002.6,N
1657059295.4,286047002.4,N
1657059315.3,286046999.8,N
1657059335.1,286046999.9,N
1657059336.0,286046999.9,N
1657059355.8,286047002.2,N
1657059375.7,286047000.2,N
1657059395.5,286047000.0,N
1657059415.3,286047000.6,N
1657059435.2,286047001.2,N
1657059455.0,286047000.7,N
1657059455.9,286047000.7,N
1657059475.8,286047000.0,N
1657059495.6,286047002.8,N
1657059515.4,286047002.5,N
1657059535.3,286046999.7,N
1657059555.1,286047000.2,N
1657059575.9,286047001.9,N
1657059595.7,286047001.3,N
1657059615.5,286047004.3,Y
1657059635.4,286047002.5,P
1657059655.2,286047000.3,N
1657059675.0,286047000.6,N
1657059675.9,286047000.6,N
1657059695.8,286047000.6,N
1657059715.6,286046999.8,N
1657059735.5,286047000.6,N
1657059755.3,286047000.6,N
1657059775.1,286047000.4,N
1657059795.9,286046998.1,N
1657059815.7,286047001.2,N
1657059835.5,286047000.5,N
1657059855.4,286047000.2,N
1657059875.2,286046999.8,N
1657059895.1,286047000.1,N
1657059896.0,286047000.1,N
1657059915.8,286047000.4,N
1657059935.6,286046998.5,N
1657059955.5,286047002.6,N
1657059975.3,286046999.7,N
1657059995.2,286047000.1,N
1657060015.9,286047000.5,N
1657060035.7,286047001.2,N
1657060055.6,286047000.4,N
1657060075.4,286047000.5,N
1657060095.2,286047000.3,N
1657060115.1,286047000.1,N
1657060116.0,286047000.1,N
1657060135.8,286047002.4,N
1657060155.7,286047002.8,N
1657060175.5,286047001.2,N
1657060195.3,286047000.3,N
1657060215.2,286047000.9,N
1657060235.0,286047001.1,N
1657060235.9,286047001.1,N
1657060255.8,286047000.6,N
1657060275.6,286047000.7,N
1657060295.4,286047001.2,N
1657060315.3,286046999.3,N
1657060335.1,286046999.5,N
1657060355.8,286046999.2,N
1657060375.7,286046997.7,N
1657060395.5,286046997.1,N
1657060415.3,286046996.7,N
1657060435.2,286046999.2,N
1657060455.0,286046996.7,N
1657060455.9,286046996.7,N
1657060475.8,286046999.3,N
1657060495.6,286046999.6,N
1657060515.4,286046999.0,N
1657060535.3,286046999.0,N
1657060555.1,286046996.6,N
1657060575.9,286046999.1,N
1657060595.7,286046999.3,N
1657060615.5,286046996.6,N
1657060635.4,286046999.5,N
1657060655.2,286046999.2,N
1657060675.0,286046999.1,N
1657060675.9,286046999.1,N
1657060695.8,286046996.9,N
1657060715.6,286046997.2,N
1657060735.5,286046996.8,N
1657060755.3,286046996.8,N
1657060775.1,286046997.0,N
1657060795.9,286046999.3,N
1657060815.7,286046999.0,N
1657060835.5,286046998.3,N
1657060855.4,286047000.8,N
1657060875.2,286047000.0,N
1657060895.0,286047000.0,N
1657060896.0,286047000.0,N
1657060915.8,286047000.5,N
1657060935.6,286047000.9,N
1657060955.5,286046998.3,N
1657060975.3,286046999.1,N
1657060995.1,286046999.2,N
1657061015.9,286046998.6,N
1657061035.7,286046998.3,N
1657061055.5,286046998.2,N
1657061075.4,286046999.4,N
1657061095.2,286046998.9,N
1657061115.1,286046998.2,N
1657061116.0,286046998.2,N
1657061135.8,286046998.6,N
1657061155.6,286046999.2,N
1657061175.5,286046998.1,N
1657061195.3,286046998.8,N
1657061215.2,286046999.0,N
1657061235.9,286046999.6,N
1657061285.8,286046999.2,E
1657061295.7,286046998.4,N
1657061315.5,286046998.5,P
1657061335.4,286046998.9,P
1657061355.2,286046998.2,Y
1657061375.0,286047000.4,P
1657061375.9,286047000.4,N
1657061395.8,286047000.0,N
1657061415.6,286047002.3,Y
1657061435.5,286046999.9,P
1657061455.3,286046999.9,P
1657061475.1,286047000.1,N
1657061495.9,286047002.4,Y
1657061515.7,286046999.9,P
1657061535.6,286047001.0,P
1657061555.4,286047000.3,N
1657061575.2,286046999.9,N
1657061595.1,286046998.5,Y
1657061596.0,286046998.5,P
1657061615.8,286046998.5,N
1657061635.7,286047000.8,N
1657061655.5,286047000.7,N
1657061675.3,286047001.1,N
1657061695.2,286047000.4,N
1657061715.0,286046998.7,N
1657061715.9,286046998.7,N
1657061735.7,286046998.5,N
1657061755.6,286046998.5,N
1657061775.4,286046998.3,N
1657061795.3,286046998.1,N
1657061815.1,286046998.6,N
1657061816.0,286046998.6,N
1657061835.8,286047001.2,N
1657061855.7,286047001.0,N
1657061875.5,286047000.6,N
1657061895.3,286047002.8,N
1657061915.2,286047002.7,N
1657061935.0,286047002.5,N
1657061935.9,286047002.5,N
1657061955.8,286047002.6,N
1657061975.6,286047001.4,N
1657061995.4,286047001.8,N
